Location: Franzen
(48.6167°N, 15.3833°E)
Time: 06:51:24
(UTC+00:00)

Cosmos 192 - Visible Passes

Search period start: 28 July 2021 00:00
Search period end: 07 August 2021 00:00
Orbit: 702 x 712 km, 74.0° (Epoch: 27 July)

Date Brightness Start Highest point End Pass type
(mag) Time Alt. Az. Time Alt. Az. Time Alt. Az.
28 Jul 5.6 01:35:02 10° NW 01:38:55 24° W 01:40:25 20° SW visible
28 Jul 6.3 22:58:50 10° N 23:02:51 24° NE 23:06:30 11° ESE visible
29 Jul 4.4 00:39:07 10° NNW 00:43:56 56° WSW 00:45:27 39° SSW visible
29 Jul 6.9 22:04:44 10° NNE 22:06:53 13° NE 22:09:02 10° ENE visible
29 Jul 4.6 23:43:46 10° NNW 23:48:41 64° ENE 23:50:33 36° SE visible
30 Jul 5.8 01:25:34 10° NW 01:28:55 19° W 01:29:30 18° WSW visible
30 Jul 5.9 22:48:49 10° N 22:53:08 29° NE 22:55:44 19° ESE visible
31 Jul 4.7 00:29:22 10° NW 00:34:02 43° WSW 00:34:40 41° SW visible
31 Jul 6.8 21:54:23 10° N 21:57:16 15° NE 22:00:10 10° E visible
31 Jul 4.3 23:33:54 10° NNW 23:38:51 81° ENE 23:39:54 56° SE visible
01 Aug 6.2 01:16:20 10° WNW 01:18:51 14° W 01:18:51 14° W visible
01 Aug 5.5 22:38:49 10° N 22:43:24 36° ENE 22:45:11 27° E visible
02 Aug 5.2 00:19:41 10° NW 00:24:05 33° WSW 00:24:08 33° WSW visible
02 Aug 6.5 21:44:11 10° N 21:47:37 18° NE 21:50:30 12° E visible
02 Aug 4.2 23:24:03 10° NNW 23:29:00 79° WSW 23:29:27 71° SSW visible
03 Aug 6.6 01:07:44 10° WNW 01:08:24 11° W 01:08:24 11° W visible
03 Aug 5.1 22:28:52 10° NNW 22:33:37 46° ENE 22:34:48 38° E visible
04 Aug 5.6 00:10:04 10° NW 00:13:46 26° W 00:13:46 26° W visible
04 Aug 6.2 21:34:04 10° N 21:37:57 22° NE 21:40:12 17° E visible
04 Aug 4.4 23:14:15 10° NNW 23:19:07 61° WSW 23:19:09 61° WSW visible
05 Aug 6.8 20:40:09 10° NNE 20:41:57 12° NE 20:43:45 10° ENE visible
05 Aug 4.6 22:18:57 10° NNW 22:23:50 58° ENE 22:24:35 52° E visible
06 Aug 6.0 00:00:34 10° NW 00:03:32 20° W 00:03:32 20° W visible
06 Aug 5.8 21:24:01 10° N 21:28:14 27° NE 21:30:02 22° E visible
06 Aug 4.8 23:04:29 10° NNW 23:09:00 47° W 23:09:00 47° W visible
